Weather History for VDPP - December, 2012

Change the Weather History Date:

Tuesday, December 11, 2012

  Actual Average Record
Temperature  
Mean Temperature 84 °F -  
Max Temperature 91 °F 84 °F 91 °F (2012)
Min Temperature 77 °F 73 °F 71 °F (1999)
Cooling Degree Days 19    
Growing Degree Days 34 (Base 50)    
Moisture  
Dew Point 70 °F    
Average Humidity 62    
Maximum Humidity 91    
Minimum Humidity 46    
Precipitation  
Precipitation 0.00 in - - ()
Sea Level Pressure  
Sea Level Pressure 29.81 in    
Wind  
Wind Speed 6 mph ()    
Max Wind Speed 110 mph    
Max Gust Speed -    
Visibility 5.9 miles    
Events      
Averages and records for this station are not official NWS values.
T = Trace of Precipitation, MM = Missing Value Source: Averaged Metar Reports

Daily Weather History Graph

Daily Weather History Graph

Search for Another Location

Airport or City:

Trip Planner

Search our weather history database for the weather conditions in past years. The results will help you decide how hot, cold, wet, or windy it might be!

Date:

Astronomy

Dec. 11, 2012 Rise Set
Actual Time 6:10 AM ICT 5:37 PM ICT
Civil Twilight 5:47 AM ICT 6:00 PM ICT
Nautical Twilight 5:20 AM ICT 6:27 PM ICT
Astronomical Twilight 4:54 AM ICT 6:53 PM ICT
Moon 3:40 AM ICT (12/11) 3:38 PM ICT (12/11)
Length of Visible Light 12h 13m
Length of Day
11h 27m
Waning Crescent, 7% of the Moon is Illuminated
Dec 11
Waning Crescent
Dec 13
New
Dec 20
First Quarter
Dec 28
Full
Jan 5
Last Quarter

Hourly Weather History & Observations

Time (ICT) Temp. Heat Index Dew Point Humidity Pressure Visibility Wind Dir Wind Speed Gust Speed Precip Events Conditions
12:00 AM 80.6 °F 84.6 °F 71.6 °F 74% 29.80 in 5.6 mi WNW 5.8 mph - N/A   Partly Cloudy
12:30 AM 80.6 °F 84.6 °F 71.6 °F 74% 29.80 in 5.6 mi WNW 3.5 mph - N/A   Partly Cloudy
1:00 AM 80.6 °F 84.6 °F 71.6 °F 74% 29.80 in 5.6 mi West 4.6 mph - N/A   Partly Cloudy
6:00 AM 75.2 °F - 69.8 °F 83% 29.80 in 5.6 mi SSE 4.6 mph - N/A   Partly Cloudy
7:00 AM 76 °F - 74 °F 91% 29.83 in 6 mi Calm Calm - -   Scattered Clouds
7:00 AM 77.0 °F - 69.8 °F 78% 29.83 in 5.6 mi SSW 3.5 mph - N/A   Partly Cloudy
7:30 AM 78.8 °F - 69.8 °F 74% 29.83 in 6.2 mi SSW 3.5 mph - N/A   Partly Cloudy
8:00 AM 82.4 °F 86.3 °F 69.8 °F 66% 29.86 in - SSE 3.5 mph - N/A   Clear
8:30 AM 84.2 °F 88.4 °F 69.8 °F 62% 29.86 in - SW 3.5 mph - N/A   Clear
9:00 AM 86.0 °F 90.4 °F 69.8 °F 58% 29.86 in - NNE 3.5 mph - N/A   Clear
9:30 AM 87.8 °F 92.6 °F 69.8 °F 55% 29.86 in 6.2 mi WSW 3.5 mph - N/A   Partly Cloudy
10:00 AM 87.8 °F 92.6 °F 69.8 °F 55% 29.86 in 6.2 mi West 5.8 mph - N/A   Partly Cloudy
10:30 AM 87.8 °F 92.6 °F 69.8 °F 55% 29.86 in 6.2 mi NNW 6.9 mph - N/A   Partly Cloudy
11:00 AM 87.8 °F 92.6 °F 69.8 °F 55% 29.83 in 6.2 mi WNW 5.8 mph - N/A   Partly Cloudy
11:30 AM 89.6 °F 94.7 °F 69.8 °F 52% 29.83 in 6.2 mi NNE 5.8 mph - N/A   Partly Cloudy
12:00 PM 89.6 °F 94.7 °F 69.8 °F 52% 29.83 in 6.2 mi NNE 11.5 mph - N/A   Partly Cloudy
12:30 PM 89.6 °F 94.7 °F 69.8 °F 52% 29.80 in 6.2 mi NNE 6.9 mph - N/A   Partly Cloudy
1:00 PM 89.6 °F 94.7 °F 69.8 °F 52% 29.80 in 6.2 mi North 3.5 mph - N/A   Partly Cloudy
1:30 PM 89.6 °F 94.7 °F 69.8 °F 52% 29.77 in 6.2 mi NNE 10.4 mph - N/A   Scattered Clouds
2:00 PM 89.6 °F 94.7 °F 69.8 °F 52% 29.77 in 6.2 mi NE 8.1 mph - N/A   Scattered Clouds
2:30 PM 89.6 °F 93.4 °F 68.0 °F 49% 29.77 in 6.2 mi Variable 8.1 mph - N/A   Scattered Clouds
3:00 PM 91.4 °F 95.4 °F 68.0 °F 46% 29.74 in 6.2 mi ENE 6.9 mph - N/A   Scattered Clouds
3:30 PM 91.4 °F 95.4 °F 68.0 °F 46% 29.74 in 6.2 mi NNE 110.5 mph - N/A   Scattered Clouds
4:00 PM 89.6 °F 93.4 °F 68.0 °F 49% 29.74 in 6.2 mi NNE 6.9 mph - N/A   Scattered Clouds
4:30 PM 89.6 °F 93.4 °F 68.0 °F 49% 29.77 in 6.2 mi NNE 9.2 mph - N/A   Scattered Clouds
5:00 PM 87.8 °F 92.6 °F 69.8 °F 55% 29.77 in 6.2 mi North 4.6 mph - N/A   Scattered Clouds
5:30 PM 87.8 °F 93.8 °F 71.6 °F 58% 29.77 in 6.2 mi NNW 4.6 mph - N/A   Scattered Clouds
6:00 PM 86.0 °F 91.8 °F 71.6 °F 62% 29.77 in 6.2 mi NNW 5.8 mph - N/A   Partly Cloudy
6:30 PM 86.0 °F 91.8 °F 71.6 °F 62% 29.80 in 5.6 mi NNW 3.5 mph - N/A   Partly Cloudy
7:00 PM 86.0 °F 91.8 °F 71.6 °F 62% 29.80 in 5.6 mi NNW 2.3 mph - N/A   Partly Cloudy
7:30 PM 86.0 °F 91.8 °F 71.6 °F 62% 29.80 in 5.6 mi North 4.6 mph - N/A   Partly Cloudy
8:00 PM 84.2 °F 89.6 °F 71.6 °F 66% 29.83 in 5.6 mi NNW 2.3 mph - N/A   Partly Cloudy
8:30 PM 84.2 °F 89.6 °F 71.6 °F 66% 29.83 in 5.6 mi NNW 3.5 mph - N/A   Partly Cloudy
9:00 PM 84.2 °F 90.9 °F 73.4 °F 70% 29.86 in 5.6 mi NNW 3.5 mph - N/A   Partly Cloudy
9:30 PM 84.2 °F 89.6 °F 71.6 °F 66% 29.86 in 5.6 mi NNW 5.8 mph - N/A   Partly Cloudy
10:00 PM 82.4 °F 87.2 °F 71.6 °F 70% 29.86 in 5.6 mi NNW 5.8 mph - N/A   Partly Cloudy
10:30 PM 82.4 °F 87.2 °F 71.6 °F 70% 29.86 in 5.6 mi NNW 5.8 mph - N/A   Partly Cloudy
11:00 PM 82.4 °F 87.2 °F 71.6 °F 70% 29.86 in 5.6 mi NNW 5.8 mph - N/A   Partly Cloudy